GW5521 Weather Reports


Display with metric or nautical units.
time (UTC)temp
F
wind
direction
speed
MPH
gust
MPH
rain 1hr
in
rain 24hr
in
rain mn
in
humidity
%
barometer
mb
20260503201827 78 114 3.0 6.0 0.00 0.00 0.00 31 1015.9
20260503201515 77 127 3.0 8.0 0.00 0.00 0.00 32 1012.0
20260503200334 76 107 3.0 7.0 0.00 0.00 0.00 32 1016.0
20260503200013 75 143 2.0 7.0 0.00 0.00 0.00 29 1012.3
20260503194819 76 181 3.0 8.0 0.00 0.00 0.00 33 1016.1
20260503194540 75 137 3.0 8.0 0.00 0.00 0.00 34 1012.4
20260503193327 77 169 3.0 6.0 0.00 0.00 0.00 34 1016.3
20260503193057 76 130 2.0 7.0 0.00 0.00 0.00 33 1012.7
20260503191853 77 284 4.0 6.0 0.00 0.00 0.00 27 1016.5
20260503191537 76 11 0.0 7.0 0.00 0.00 0.00 26 1012.9
20260503190340 76 87 2.0 6.0 0.00 0.00 0.00 28 1016.6
20260503190038 75 103 3.0 6.0 0.00 0.00 0.00 28 1013.1
20260503184845 75 25 2.0 6.0 0.00 0.00 0.00 28 1016.7
20260503184540 75 356 2.0 6.0 0.00 0.00 0.00 28 1013.3
20260503183332 76 15 3.0 6.0 0.00 0.00 0.00 28 1016.8
20260503183102 75 353 2.0 5.0 0.00 0.00 0.00 31 1013.3
20260503181839 76 10 2.0 6.0 0.00 0.00 0.00 31 1016.7
20260503181503 75 360 2.0 6.0 0.00 0.00 0.00 32 1013.3
20260503180346 75 33 3.0 6.0 0.00 0.00 0.00 31 1016.8
20260503180003 74 88 4.0 6.0 0.00 0.00 0.00 31 1013.3
20260503174824 75 54 2.0 7.0 0.00 0.00 0.00 31 1016.8
20260503174526 74 13 1.0 8.0 0.00 0.00 0.00 32 1013.4
20260503173312 74 356 3.0 8.0 0.00 0.00 0.00 31 1016.8
20260503173047 74 26 2.0 8.0 0.00 0.00 0.00 30 1013.5
20260503171926 74 12 2.0 6.0 0.00 0.00 0.00 31 1016.9
20260503171506 74 356 2.0 8.0 0.00 0.00 0.00 33 1013.6
20260503170324 74 51 2.0 5.0 0.00 0.00 0.00 32 1016.9
20260503150314 65 332 1.0 3.0 0.00 0.00 0.00 53 1017.3
20260503130336 56 307 4.0 5.0 0.00 0.00 0.00 56 1016.9
20260503110313 56 314 4.0 5.0 0.00 0.00 0.00 60 1017.3
20260503090315 56 305 4.0 5.0 0.00 0.00 0.00 63 1017.6
20260503081558 55 309 3.0 5.0 0.00 0.00 0.00 70 1015.5
20260503080309 56 311 2.0 3.0 0.00 0.00 0.00 68 1017.8
20260503071847 57 309 3.0 4.0 0.00 0.00 0.00 70 1017.6
20260503071522 56 304 3.0 4.0 0.00 0.00 0.00 70 1015.4
20260503070335 55 303 2.0 4.0 0.00 0.00 0.00 74 1017.7
20260503060315 59 317 3.0 4.0 0.00 0.00 0.00 72 1018.0
20260503054821 55 322 3.0 4.0 0.00 0.00 0.00 80 1017.9
20260503054556 55 313 3.0 4.0 0.00 0.00 0.00 79 1015.7
20260503053329 56 307 3.0 4.0 0.00 0.00 0.00 77 1018.1
20260503053005 56 308 3.0 4.0 0.00 0.00 0.00 77 1015.7
20260503051807 56 304 3.0 3.0 0.00 0.00 0.00 78 1018.0
20260503051528 56 304 2.0 3.0 0.00 0.00 0.00 78 1015.7
20260503050315 57 306 3.0 4.0 0.00 0.00 0.00 77 1017.8
20260503050050 56 314 2.0 4.0 0.00 0.00 0.00 77 1015.5
20260503044815 56 302 3.0 3.0 0.00 0.00 0.00 78 1017.5
20260503044510 56 302 2.0 3.0 0.00 0.00 0.00 78 1015.2
20260503043321 57 302 2.0 4.0 0.00 0.00 0.00 78 1017.4
20260503043031 57 302 2.0 5.0 0.00 0.00 0.00 78 1015.2
20260503041845 58 306 4.0 5.0 0.00 0.00 0.00 77 1017.4
20260503041537 57 314 3.0 4.0 0.00 0.00 0.00 77 1015.1
20260503040313 59 308 2.0 3.0 0.00 0.00 0.00 75 1017.4
20260503034816 60 312 2.0 3.0 0.00 0.00 0.00 73 1017.1
20260503034513 60 312 2.0 3.0 0.00 0.00 0.00 72 1014.7
20260503033325 62 312 0.0 3.0 0.00 0.00 0.00 70 1016.9
20260503033038 62 312 0.0 3.0 0.00 0.00 0.00 70 1014.5
20260503031830 64 318 1.0 3.0 0.00 0.00 0.00 66 1016.7
20260503031536 63 329 0.0 3.0 0.00 0.00 0.00 65 1014.4
20260503030338 64 265 1.0 2.0 0.00 0.00 0.00 67 1016.5
20260503030045 64 265 0.0 2.0 0.00 0.00 0.00 67 1014.2
20260503024822 65 198 2.0 3.0 0.00 0.00 0.00 66 1016.4
20260503024558 64 240 1.0 6.0 0.00 0.00 0.00 66 1014.1
20260503023322 65 188 3.0 6.0 0.00 0.00 0.00 66 1016.4
20260503023018 65 180 3.0 6.0 0.00 0.00 0.00 65 1013.9
20260503021807 67 221 3.0 5.0 0.00 0.00 0.00 61 1016.2
20260503021539 67 183 2.0 5.0 0.00 0.00 0.00 62 1013.8
20260503020316 67 210 5.0 8.0 0.00 0.00 0.00 59 1016.1
20260503020100 67 221 4.0 8.0 0.00 0.00 0.00 62 1013.9
20260503014814 68 217 4.0 10.0 0.00 0.00 0.00 62 1016.3
20260503014521 67 219 3.0 10.0 0.00 0.00 0.00 62 1014.0
20260503013345 68 190 5.0 11.0 0.00 0.00 0.00 59 1016.2
20260503013024 68 228 2.0 9.0 0.00 0.00 0.00 60 1013.9
20260503011831 70 250 6.0 10.0 0.00 0.00 0.00 58 1016.2
20260503011524 70 155 3.0 10.0 0.00 0.00 0.00 52 1013.9
20260503010318 71 269 6.0 11.0 0.00 0.00 0.00 53 1016.0
20260503010045 70 258 2.0 11.0 0.00 0.00 0.00 53 1013.8
20260503004904 71 235 10.0 12.0 0.00 0.00 0.00 52 1016.0
20260503004527 70 216 2.0 16.0 0.00 0.00 0.00 54 1013.8
20260503003331 71 226 7.0 14.0 0.00 0.00 0.00 53 1016.0
20260503003027 70 198 5.0 16.0 0.00 0.00 0.00 52 1013.8
20260503001836 70 240 8.0 13.0 0.00 0.00 0.00 54 1016.0
20260503001529 70 301 5.0 12.0 0.00 0.00 0.00 53 1013.8
20260503000322 71 213 7.0 14.0 0.00 0.00 0.00 52 1016.1
20260503000049 70 223 6.0 14.0 0.00 0.00 0.00 50 1013.9
20260502234828 71 329 2.0 10.0 0.00 0.00 0.00 51 1016.1
20260502234509 70 318 6.0 14.0 0.00 0.00 0.00 50 1014.0
20260502233313 70 210 6.0 12.0 0.00 0.00 0.00 51 1016.2
20260502233031 69 222 5.0 13.0 0.00 0.00 0.00 58 1014.1
20260502231819 70 225 7.0 13.0 0.00 0.00 0.00 54 1016.2
20260502231554 70 198 6.0 13.0 0.00 0.00 0.00 51 1014.1
20260502230347 71 210 8.0 15.0 0.00 0.00 0.00 51 1016.2
20260502230054 70 217 6.0 15.0 0.00 0.00 0.00 50 1014.1
20260502224832 68 199 6.0 11.0 0.00 0.00 0.00 61 1016.2
20260502224514 68 207 6.0 12.0 0.00 0.00 0.00 63 1014.2
20260502223311 68 197 7.0 10.0 0.00 0.00 0.00 62 1016.4
20260502223033 67 218 6.0 12.0 0.00 0.00 0.00 63 1014.4
20260502221817 68 198 8.0 11.0 0.00 0.00 0.00 63 1016.6
20260502221555 67 216 7.0 14.0 0.00 0.00 0.00 65 1014.4
20260502220318 67 181 9.0 13.0 0.00 0.00 0.00 66 1016.6
20260502220014 66 183 8.0 12.0 0.00 0.00 0.00 64 1014.4
20260502214824 67 190 8.0 11.0 0.00 0.00 0.00 63 1016.6
20260502214537 67 207 6.0 11.0 0.00 0.00 0.00 61 1014.5
20260502213312 66 190 7.0 11.0 0.00 0.00 0.00 63 1016.7
20260502213059 66 238 5.0 11.0 0.00 0.00 0.00 65 1014.6
20260502211810 66 247 5.0 8.0 0.00 0.00 0.00 66 1016.7
20260502211519 65 183 3.0 6.0 0.00 0.00 0.00 65 1014.6
20260502210405 65 155 3.0 5.0 0.00 0.00 0.00 67 1016.8
20260502210116 64 216 3.0 6.0 0.00 0.00 0.00 68 1014.7
20260502204849 62 204 2.0 4.0 0.00 0.00 0.00 71 1017.0
20260502204601 62 186 1.0 3.0 0.00 0.00 0.00 72 1014.9
20260502203309 63 202 2.0 4.0 0.00 0.00 0.00 69 1017.2
20260502203020 62 210 3.0 4.0 0.00 0.00 0.00 70 1015.1